Weather History for Mobridge, SD

Change the Weather History Date:

Sunday, September 7, 2014

  Actual Average Record
Temperature  
Mean Temperature 67 °F 65 °F  
Max Temperature 82 °F 78 °F 104 °F (1931)
Min Temperature 52 °F 52 °F 36 °F (1949)
Degree Days  
Heating Degree Days 0 4  
Month to date heating degree days 13 21  
Since 1 July heating degree days 60 54  
Cooling Degree Days 2 3  
Month to date cooling degree days 7 28  
Year to date cooling degree days 410 609  
Growing Degree Days 17 (Base 50)    
Moisture  
Dew Point 58 °F    
Average Humidity 73    
Maximum Humidity 100    
Minimum Humidity 45    
Precipitation  
Precipitation 0.00 in 0.04 in 1.11 in (1970)
Month to date precipitation 0.02 0.31  
Year to date precipitation 19.34 14.22  
Sea Level Pressure  
Sea Level Pressure 29.86 in    
Wind  
Wind Speed 10 mph (SE)    
Max Wind Speed 16 mph    
Max Gust Speed 19 mph    
Visibility 10 miles    
Events Thunderstorm    
T = Trace of Precipitation, MM = Missing Value Source: NWS Daily Summary

Daily Weather History Graph

Daily Weather History Graph

Search for Another Location

Airport:

Trip Planner

Search our weather history database for the weather conditions in past years. The results will help you decide how hot, cold, wet, or windy it might be!

Date:

Astronomy

Sep. 07, 2014 Rise Set
Actual Time 7:10 AM CDT 8:08 PM CDT
Civil Twilight 6:40 AM CDT 8:38 PM CDT
Nautical Twilight 6:03 AM CDT 9:14 PM CDT
Astronomical Twilight 5:25 AM CDT 9:51 PM CDT
Moon 7:10 PM CDT (9/7) 5:22 AM CDT (9/7)
Length of Visible Light 13h 58m
Length of Day
12h 57m
Waxing Gibbous, 97% of the Moon is Illuminated
Sep 7
Waxing Gibbous
Sep 8
Full
Sep 15
Last Quarter
Sep 24
New
Oct 1
First Quarter

Hourly Weather History & Observations

Time (CDT) Temp. Heat Index Dew Point Humidity Pressure Visibility Wind Dir Wind Speed Gust Speed Precip Events Conditions
12:52 AM 57.9 °F - 55.0 °F 90% 30.02 in 10.0 mi SE 9.2 mph - N/A   Clear
1:52 AM 55.9 °F - 54.0 °F 93% 30.01 in 10.0 mi SE 8.1 mph - N/A   Clear
2:52 AM 55.0 °F - 53.1 °F 93% 30.00 in 10.0 mi SE 8.1 mph - N/A   Clear
4:52 AM 53.1 °F - 52.0 °F 96% 29.99 in 10.0 mi SE 8.1 mph - N/A   Clear
5:52 AM 53.1 °F - 52.0 °F 96% 29.98 in 10.0 mi SSE 6.9 mph - N/A   Clear
6:52 AM 54.0 °F - 53.1 °F 97% 29.97 in 10.0 mi SSE 10.4 mph - N/A   Clear
7:52 AM 55.9 °F - 55.0 °F 97% 29.96 in 10.0 mi SSE 10.4 mph - N/A   Clear
8:52 AM 59.0 °F - 57.0 °F 93% 29.96 in 10.0 mi SSE 11.5 mph - N/A   Clear
9:52 AM 63.0 °F - 57.0 °F 81% 29.94 in 10.0 mi South 10.4 mph - N/A   Clear
10:52 AM 66.0 °F - 59.0 °F 78% 29.93 in 10.0 mi SSE 9.2 mph - N/A   Clear
11:52 AM 71.1 °F - 62.1 °F 73% 29.91 in 10.0 mi SSE 9.2 mph - N/A   Clear
12:52 PM 73.0 °F - 61.0 °F 66% 29.88 in 10.0 mi SSE 10.4 mph - N/A   Clear
1:52 PM 79.0 °F - 60.1 °F 52% 29.85 in 10.0 mi SSE 11.5 mph - N/A   Clear
2:52 PM 80.1 °F 81.1 °F 61.0 °F 52% 29.83 in 10.0 mi SSE 13.8 mph - N/A   Clear
4:52 PM 81.0 °F 81.1 °F 57.9 °F 45% 29.78 in 10.0 mi SSE 10.4 mph - N/A   Clear
5:52 PM 81.0 °F 81.7 °F 61.0 °F 50% 29.77 in 10.0 mi SE 6.9 mph - N/A   Clear
6:52 PM 78.1 °F - 63.0 °F 60% 29.75 in 10.0 mi East 3.5 mph - N/A   Clear
7:52 PM 73.0 °F - 60.1 °F 64% 29.73 in 10.0 mi East 9.2 mph - N/A   Clear
8:52 PM 72.0 °F - 55.9 °F 57% 29.72 in 10.0 mi East 12.7 mph - N/A   Clear
10:12 PM 70.0 °F - 60.1 °F 71% 29.73 in 10.0 mi SE 11.5 mph - N/A Thunderstorm Clear
10:32 PM 70.0 °F - 60.1 °F 71% 29.73 in 10.0 mi SE 11.5 mph - N/A   Clear
10:52 PM 70.0 °F - 57.9 °F 65% 29.71 in 10.0 mi SE 12.7 mph - N/A   Clear
11:52 PM 64.9 °F - 57.9 °F 78% 29.70 in 10.0 mi SE 10.4 mph - N/A   Clear